Location: State Camp
(41.2367°N, 77.7828°W)
Time: 14:11:59
(UTC-04:00)

Hubble Space Telescope - Visible Passes

Search period start: 26 September 2017 00:00
Search period end: 06 October 2017 00:00
Orbit: 538 x 541 km, 28.5° (Epoch: 25 September)

Date Brightness Start Highest point End Pass type
(mag) Time Alt. Az. Time Alt. Az. Time Alt. Az.
01 Oct 3.4 06:37:46 10° S 06:38:49 11° SSE 06:39:52 10° SSE visible
02 Oct 3.3 06:26:55 10° SSW 06:28:31 12° S 06:30:07 10° SSE visible
03 Oct 3.2 06:16:20 10° SSW 06:18:13 13° S 06:20:07 10° SE visible
04 Oct 3.1 06:05:52 10° SSW 06:07:56 13° S 06:10:00 10° SE visible
05 Oct 3.0 05:55:45 11° SSW 05:57:39 14° S 05:59:48 10° SSE visible
